User: anonymous   Login
Location: Chuathbaluk
(61.5726°N, 159.2454°W)
Time: 13:03:08
(UTC+00:00)
Language:

NUDT-PHONESAT - Orbit

View from above orbital plane
View from above orbital plane
View from above satellite
View from above satellite

Ground track
Ground track

The orbit data is extracted from the following two-line orbital elements,

1 40900U 15049B   21016.10328463  .00002963  00000-0  12039-3 0  9997
2 40900  97.4253  31.2939 0011175 322.9185 107.6935 15.25310453295597
Epoch (UTC): 16 January 2021 02:28:43
Eccentricity: 0.0011175
inclination: 97.4253°
perigee height: 482 km
apogee height: 497 km
right ascension of ascending node: 31.2939°
argument of perigee: 322.9185°
revolutions per day: 15.25310453
mean anomaly at epoch: 107.6935°
orbit number at epoch: 29559

The dashed part of the orbit path shows where the satellite is in the earth's shadow,  

DLR